Time,TemperatureF,DewpointF,PressureIn,WindDirection,WindDirectionDegrees,WindSpeedMPH,WindSpeedGustMPH,Humidity,HourlyPrecipIn,Conditions,Clouds,dailyrainin,SolarRadiationWatts/m^2,SoftwareType,DateUTC
2013-08-11 00:00:00,57.2,57.2,30.03,SSW,202,8.5,11.9,100,0.00,,,0.00,0.00,VWS V14.01,2013-08-11 07:00:00,
2013-08-11 00:01:00,57.2,57.2,30.03,SSE,158,7.4,12.3,100,0.00,,,0.00,0.00,VWS V14.01,2013-08-11 07:01:00,
2013-08-11 00:06:00,57.2,57.2,30.03,SSW,202,3.8,12.3,100,0.00,,,0.00,0.00,VWS V14.01,2013-08-11 07:06:00,
2013-08-11 00:13:00,57.2,57.2,30.03,SSW,202,6.3,12.3,100,0.00,,,0.00,0.00,VWS V14.01,2013-08-11 07:13:00,
2013-08-11 00:15:00,57.2,57.2,30.03,SSW,202,2.7,12.3,100,0.00,,,0.00,0.00,VWS V14.01,2013-08-11 07:15:00,
2013-08-11 00:19:00,57.2,57.2,30.03,SSE,158,4.3,12.3,100,0.00,,,0.00,0.00,VWS V14.01,2013-08-11 07:19:00,
2013-08-11 00:24:00,57.2,57.2,30.03,SSW,202,7.8,12.3,100,0.00,,,0.00,0.00,VWS V14.01,2013-08-11 07:24:00,
2013-08-11 00:29:00,57.2,57.2,30.00,SW,225,8.7,12.3,100,0.00,,,0.00,0.00,VWS V14.01,2013-08-11 07:29:00,
2013-08-11 00:30:00,57.2,57.2,30.00,South,180,5.6,12.3,100,0.00,,,0.00,0.00,VWS V14.01,2013-08-11 07:30:00,
2013-08-11 00:34:00,57.2,57.2,30.00,SSE,158,3.1,8.7,100,0.00,,,0.00,0.00,VWS V14.01,2013-08-11 07:34:00,
2013-08-11 00:41:00,57.2,57.2,30.00,South,180,14.3,14.3,100,0.00,,,0.00,0.00,VWS V14.01,2013-08-11 07:41:00,
2013-08-11 00:45:00,57.2,57.2,30.03,SSE,158,5.6,14.3,100,0.00,,,0.00,0.00,VWS V14.01,2013-08-11 07:45:00,
2013-08-11 00:47:00,57.2,57.2,30.03,SW,225,5.6,8.7,100,0.00,,,0.00,0.00,VWS V14.01,2013-08-11 07:47:00,
2013-08-11 00:52:00,57.2,57.2,30.03,SSW,202,8.7,13.4,100,0.00,,,0.00,0.00,VWS V14.01,2013-08-11 07:52:00,
2013-08-11 00:57:00,57.0,57.0,30.03,South,180,3.1,13.4,100,0.00,,,0.00,0.00,VWS V14.01,2013-08-11 07:57:00,
2013-08-11 01:00:00,57.0,57.0,30.03,SSW,202,5.4,13.4,100,0.00,,,0.00,0.00,VWS V14.01,2013-08-11 08:00:00,
2013-08-11 01:02:00,57.0,57.0,30.03,South,180,5.4,8.7,100,0.00,,,0.00,0.00,VWS V14.01,2013-08-11 08:02:00,
2013-08-11 01:07:00,57.0,57.0,30.03,SE,135,2.0,8.7,100,0.00,,,0.00,0.00,VWS V14.01,2013-08-11 08:07:00,
2013-08-11 01:13:00,57.0,57.0,30.03,SSW,202,7.2,8.7,100,0.00,,,0.00,0.00,VWS V14.01,2013-08-11 08:13:00,
2013-08-11 01:15:00,57.0,57.0,30.03,South,180,2.5,8.7,100,0.00,,,0.00,0.00,VWS V14.01,2013-08-11 08:15:00,
2013-08-11 01:19:00,57.0,57.0,30.03,SW,225,4.9,9.2,100,0.00,,,0.00,0.00,VWS V14.01,2013-08-11 08:19:00,
2013-08-11 01:24:00,57.0,57.0,30.03,South,180,2.9,9.2,100,0.00,,,0.00,0.00,VWS V14.01,2013-08-11 08:24:00,
2013-08-11 01:30:00,57.0,57.0,30.03,SSW,202,4.3,9.2,100,0.00,,,0.00,0.00,VWS V14.01,2013-08-11 08:30:00,
2013-08-11 01:35:00,57.0,57.0,30.03,SSW,202,5.6,10.5,100,0.00,,,0.00,0.00,VWS V14.01,2013-08-11 08:35:00,
2013-08-11 01:42:00,56.8,56.8,30.03,SE,135,0.0,10.7,100,0.00,,,0.00,0.00,VWS V14.01,2013-08-11 08:42:00,
2013-08-11 01:45:00,56.8,56.8,30.00,SSE,158,6.3,10.7,100,0.00,,,0.00,0.00,VWS V14.01,2013-08-11 08:45:00,
2013-08-11 01:48:00,56.8,56.8,30.00,SE,135,4.3,10.3,100,0.00,,,0.00,0.00,VWS V14.01,2013-08-11 08:48:00,
2013-08-11 01:53:00,56.8,56.8,30.00,NNW,338,1.6,10.3,100,0.00,,,0.00,0.00,VWS V14.01,2013-08-11 08:53:00,
2013-08-11 02:00:00,56.8,56.8,30.03,WNW,292,3.8,10.3,100,0.00,,,0.00,0.00,VWS V14.01,2013-08-11 09:00:00,
2013-08-11 02:06:00,56.8,56.8,30.03,SSW,202,6.0,7.6,100,0.00,,,0.00,0.00,VWS V14.01,2013-08-11 09:06:00,
2013-08-11 02:12:00,56.8,56.8,30.03,SE,135,5.6,8.7,100,0.00,,,0.00,0.00,VWS V14.01,2013-08-11 09:12:00,
2013-08-11 02:15:00,56.8,56.8,30.00,South,180,10.1,10.1,100,0.00,,,0.00,0.00,VWS V14.01,2013-08-11 09:15:00,
2013-08-11 02:18:00,56.8,56.8,30.00,SSE,158,2.0,10.1,100,0.00,,,0.00,0.00,VWS V14.01,2013-08-11 09:18:00,
2013-08-11 02:28:00,56.7,56.7,30.00,SSW,202,6.0,10.7,100,0.00,,,0.00,0.00,VWS V14.01,2013-08-11 09:28:00,
2013-08-11 02:30:00,56.7,56.7,30.00,SSW,202,8.1,10.7,100,0.00,,,0.00,0.00,VWS V14.01,2013-08-11 09:30:00,
2013-08-11 02:33:00,56.7,56.7,30.00,SSW,202,4.7,8.1,100,0.00,,,0.00,0.00,VWS V14.01,2013-08-11 09:33:00,
2013-08-11 02:38:00,56.7,56.7,30.00,South,180,6.0,8.5,100,0.00,,,0.00,0.00,VWS V14.01,2013-08-11 09:38:00,
2013-08-11 02:45:00,56.7,56.7,30.00,South,180,2.9,9.0,100,0.00,,,0.00,0.00,VWS V14.01,2013-08-11 09:45:00,
2013-08-11 02:50:00,56.5,56.5,30.00,SSE,158,3.8,9.6,100,0.00,,,0.00,0.00,VWS V14.01,2013-08-11 09:50:00,
2013-08-11 02:55:00,56.5,56.5,30.00,WSW,248,2.9,9.6,100,0.00,,,0.00,0.00,VWS V14.01,2013-08-11 09:55:00,
2013-08-11 03:00:00,56.5,56.5,30.00,South,180,6.0,7.6,100,0.00,,,0.00,0.00,VWS V14.01,2013-08-11 10:00:00,
2013-08-11 03:07:00,56.3,56.3,30.00,SSE,158,4.3,8.5,100,0.00,,,0.00,0.00,VWS V14.01,2013-08-11 10:07:00,
2013-08-11 03:13:00,56.3,56.3,30.00,SSW,202,4.3,8.5,100,0.00,,,0.00,0.00,VWS V14.01,2013-08-11 10:13:00,
2013-08-11 03:15:00,56.3,56.3,30.00,SSE,158,1.1,8.5,100,0.00,,,0.00,0.00,VWS V14.01,2013-08-11 10:15:00,
2013-08-11 03:18:00,56.1,56.1,30.00,WNW,292,2.2,7.8,100,0.00,,,0.00,0.00,VWS V14.01,2013-08-11 10:18:00,
2013-08-11 03:23:00,56.1,56.1,30.00,SSE,158,2.9,7.8,100,0.00,,,0.00,0.00,VWS V14.01,2013-08-11 10:23:00,
2013-08-11 03:30:00,56.1,56.1,30.00,ESE,112,2.7,7.8,100,0.00,,,0.00,0.00,VWS V14.01,2013-08-11 10:30:00,
2013-08-11 03:36:00,55.9,55.9,30.00,South,180,4.7,7.4,100,0.00,,,0.00,0.00,VWS V14.01,2013-08-11 10:36:00,
2013-08-11 03:41:00,55.8,55.8,30.00,SE,135,3.8,10.1,100,0.00,,,0.00,0.00,VWS V14.01,2013-08-11 10:41:00,
2013-08-11 03:45:00,55.8,55.8,30.00,SSW,202,3.8,10.1,100,0.00,,,0.00,0.00,VWS V14.01,2013-08-11 10:45:00,
2013-08-11 03:47:00,55.8,55.8,30.00,SSW,202,4.7,8.7,100,0.00,,,0.00,0.00,VWS V14.01,2013-08-11 10:47:00,
2013-08-11 03:52:00,55.6,55.6,30.00,SE,135,0.9,10.3,100,0.00,,,0.00,0.00,VWS V14.01,2013-08-11 10:52:00,
2013-08-11 03:57:00,55.6,55.6,30.00,SSE,158,2.0,10.3,100,0.00,,,0.00,0.00,VWS V14.01,2013-08-11 10:57:00,
2013-08-11 04:00:00,55.6,55.6,30.00,SSW,202,5.8,10.3,100,0.00,,,0.00,0.00,VWS V14.01,2013-08-11 11:00:00,
2013-08-11 04:04:00,55.6,55.6,30.00,South,180,3.4,8.7,100,0.00,,,0.00,0.00,VWS V14.01,2013-08-11 11:04:00,
2013-08-11 04:10:00,55.6,55.6,30.00,WSW,248,3.6,8.7,100,0.00,,,0.00,0.00,VWS V14.01,2013-08-11 11:10:00,
2013-08-11 04:15:00,55.6,55.6,30.00,SSE,158,4.9,8.7,100,0.00,,,0.00,0.00,VWS V14.01,2013-08-11 11:15:00,
2013-08-11 04:20:00,55.6,55.6,30.00,SSE,158,3.8,7.4,100,0.00,,,0.00,0.00,VWS V14.01,2013-08-11 11:20:00,
2013-08-11 04:26:00,55.6,55.6,30.00,NE,45,0.0,7.4,100,0.00,,,0.00,0.00,VWS V14.01,2013-08-11 11:26:00,
2013-08-11 04:30:00,55.4,55.4,30.00,WSW,248,3.4,7.4,100,0.00,,,0.00,0.00,VWS V14.01,2013-08-11 11:30:00,
2013-08-11 04:31:00,55.4,55.4,30.00,SSE,158,3.6,6.3,100,0.00,,,0.00,0.00,VWS V14.01,2013-08-11 11:31:00,
2013-08-11 04:36:00,55.4,55.4,30.00,SE,135,5.4,7.6,100,0.00,,,0.00,0.00,VWS V14.01,2013-08-11 11:36:00,
2013-08-11 04:42:00,55.4,55.4,30.00,South,180,7.6,7.8,100,0.00,,,0.00,0.00,VWS V14.01,2013-08-11 11:42:00,
2013-08-11 04:45:00,55.4,55.4,30.00,South,180,6.0,7.8,100,0.00,,,0.00,0.00,VWS V14.01,2013-08-11 11:45:00,
2013-08-11 04:47:00,55.4,55.4,30.00,South,180,2.7,6.0,100,0.00,,,0.00,0.00,VWS V14.01,2013-08-11 11:47:00,
2013-08-11 04:52:00,55.4,55.4,30.00,SW,225,5.6,10.3,100,0.00,,,0.00,0.00,VWS V14.01,2013-08-11 11:52:00,
2013-08-11 04:58:00,55.2,55.2,30.00,South,180,2.0,10.3,100,0.00,,,0.00,0.00,VWS V14.01,2013-08-11 11:58:00,
2013-08-11 05:00:00,55.2,55.2,30.00,SSW,202,0.0,10.3,100,0.00,,,0.00,0.00,VWS V14.01,2013-08-11 12:00:00,
2013-08-11 05:03:00,55.2,55.2,30.00,SSW,202,3.6,10.1,100,0.00,,,0.00,0.00,VWS V14.01,2013-08-11 12:03:00,
2013-08-11 05:08:00,55.2,55.2,30.00,South,180,3.1,10.1,100,0.00,,,0.00,0.00,VWS V14.01,2013-08-11 12:08:00,
2013-08-11 05:14:00,55.0,55.0,30.00,SW,225,3.4,10.1,100,0.00,,,0.00,0.00,VWS V14.01,2013-08-11 12:14:00,
2013-08-11 05:15:00,55.0,55.0,30.00,SE,135,2.9,10.1,100,0.00,,,0.00,0.00,VWS V14.01,2013-08-11 12:15:00,
2013-08-11 05:21:00,55.2,55.2,30.00,South,180,4.9,7.8,100,0.00,,,0.00,0.00,VWS V14.01,2013-08-11 12:21:00,
2013-08-11 05:26:00,55.2,55.2,30.00,SW,225,3.8,10.3,100,0.00,,,0.00,0.00,VWS V14.01,2013-08-11 12:26:00,
2013-08-11 05:30:00,55.2,55.2,30.00,SSW,202,6.5,10.3,100,0.00,,,0.00,0.00,VWS V14.01,2013-08-11 12:30:00,
2013-08-11 05:32:00,55.0,55.0,30.00,SW,225,3.6,6.5,100,0.00,,,0.00,0.00,VWS V14.01,2013-08-11 12:32:00,
2013-08-11 05:38:00,55.0,55.0,30.00,SSW,202,1.3,6.5,100,0.00,,,0.00,0.00,VWS V14.01,2013-08-11 12:38:00,
2013-08-11 05:44:00,55.0,55.0,30.00,ENE,68,1.6,6.5,100,0.00,,,0.00,0.00,VWS V14.01,2013-08-11 12:44:00,
2013-08-11 05:45:00,55.0,55.0,30.00,East,90,0.0,6.5,100,0.00,,,0.00,0.00,VWS V14.01,2013-08-11 12:45:00,
2013-08-11 05:49:00,55.0,55.0,30.00,East,90,3.1,3.1,100,0.00,,,0.00,0.00,VWS V14.01,2013-08-11 12:49:00,
2013-08-11 05:54:00,55.0,55.0,30.00,North,0,0.0,3.6,100,0.00,,,0.00,0.00,VWS V14.01,2013-08-11 12:54:00,
2013-08-11 06:00:00,55.0,55.0,30.00,SW,225,0.0,4.0,100,0.00,,,0.00,0.00,VWS V14.01,2013-08-11 13:00:00,
2013-08-11 06:05:00,55.0,55.0,30.00,East,90,1.3,3.8,100,0.00,,,0.00,0.00,VWS V14.01,2013-08-11 13:05:00,
2013-08-11 06:11:00,54.9,54.9,30.00,NNE,22,2.2,3.8,100,0.00,,,0.00,0.00,VWS V14.01,2013-08-11 13:11:00,
2013-08-11 06:15:00,54.9,54.9,30.00,NE,45,0.0,5.4,100,0.00,,,0.00,0.00,VWS V14.01,2013-08-11 13:15:00,
2013-08-11 06:16:00,54.9,54.9,30.00,ENE,68,0.0,2.0,100,0.00,,,0.00,0.00,VWS V14.01,2013-08-11 13:16:00,
2013-08-11 06:21:00,55.0,55.0,30.00,East,90,1.3,2.9,100,0.00,,,0.00,0.00,VWS V14.01,2013-08-11 13:21:00,
2013-08-11 06:28:00,54.9,54.9,30.00,SSE,158,1.3,3.4,100,0.00,,,0.00,0.00,VWS V14.01,2013-08-11 13:28:00,
2013-08-11 06:30:00,54.9,54.9,30.00,SSE,158,0.0,3.4,100,0.00,,,0.00,0.00,VWS V14.01,2013-08-11 13:30:00,
2013-08-11 06:33:00,55.0,55.0,30.00,NE,45,0.0,3.4,100,0.00,,,0.00,0.00,VWS V14.01,2013-08-11 13:33:00,
2013-08-11 06:41:00,55.2,55.2,30.00,East,90,0.9,4.3,100,0.00,,,0.00,0.00,VWS V14.01,2013-08-11 13:41:00,
2013-08-11 06:45:00,55.0,55.0,30.00,NNW,338,2.2,4.3,100,0.00,,,0.00,0.00,VWS V14.01,2013-08-11 13:45:00,
2013-08-11 06:51:00,55.0,55.0,30.00,NW,315,0.0,2.5,100,0.00,,,0.00,0.00,VWS V14.01,2013-08-11 13:51:00,
2013-08-11 06:56:00,55.0,55.0,30.00,NNE,22,2.9,2.9,100,0.00,,,0.00,0.00,VWS V14.01,2013-08-11 13:56:00,
2013-08-11 07:00:00,55.2,55.2,30.00,East,90,0.0,3.1,100,0.00,,,0.00,0.00,VWS V14.01,2013-08-11 14:00:00,
2013-08-11 07:02:00,55.0,55.0,30.00,NE,45,2.7,3.4,100,0.00,,,0.00,0.00,VWS V14.01,2013-08-11 14:02:00,
2013-08-11 07:07:00,55.2,55.2,30.00,ENE,68,0.9,4.3,100,0.00,,,0.00,0.00,VWS V14.01,2013-08-11 14:07:00,
2013-08-11 07:12:00,55.2,55.2,30.00,East,90,2.5,4.3,100,0.00,,,0.00,0.00,VWS V14.01,2013-08-11 14:12:00,
2013-08-11 07:15:00,55.0,55.0,30.03,East,90,0.0,4.3,100,0.00,,,0.00,0.00,VWS V14.01,2013-08-11 14:15:00,
2013-08-11 07:18:00,55.0,55.0,30.03,East,90,0.0,3.4,100,0.00,,,0.00,0.00,VWS V14.01,2013-08-11 14:18:00,
2013-08-11 07:23:00,55.2,55.2,30.03,North,0,1.6,3.8,100,0.00,,,0.00,0.00,VWS V14.01,2013-08-11 14:23:00,
2013-08-11 07:28:00,55.2,55.2,30.03,North,0,0.0,3.8,100,0.00,,,0.00,0.00,VWS V14.01,2013-08-11 14:28:00,
2013-08-11 07:30:00,55.2,55.2,30.00,NNE,22,3.8,3.8,100,0.00,,,0.00,0.00,VWS V14.01,2013-08-11 14:30:00,
2013-08-11 07:36:00,55.2,55.2,30.00,East,90,2.0,3.8,100,0.00,,,0.00,0.00,VWS V14.01,2013-08-11 14:36:00,
2013-08-11 07:41:00,55.4,55.4,30.00,ENE,68,2.7,3.8,100,0.00,,,0.00,0.00,VWS V14.01,2013-08-11 14:41:00,
2013-08-11 07:45:00,55.6,55.6,30.00,East,90,3.4,4.9,100,0.00,,,0.00,0.00,VWS V14.01,2013-08-11 14:45:00,
2013-08-11 07:47:00,55.4,55.4,30.00,East,90,1.1,3.4,100,0.00,,,0.00,0.00,VWS V14.01,2013-08-11 14:47:00,
2013-08-11 07:53:00,55.6,55.6,30.00,NE,45,3.4,4.7,100,0.00,,,0.00,0.00,VWS V14.01,2013-08-11 14:53:00,
2013-08-11 07:59:00,55.6,55.6,30.03,East,90,0.0,4.7,100,0.00,,,0.00,0.00,VWS V14.01,2013-08-11 14:59:00,
2013-08-11 08:00:00,55.6,55.6,30.03,East,90,2.5,4.7,100,0.00,,,0.00,0.00,VWS V14.01,2013-08-11 15:00:00,
2013-08-11 08:04:00,55.6,55.6,30.03,ENE,68,2.5,3.6,100,0.00,,,0.00,0.00,VWS V14.01,2013-08-11 15:04:00,
2013-08-11 08:09:00,55.6,55.6,30.03,ESE,112,5.8,5.8,100,0.00,,,0.00,0.00,VWS V14.01,2013-08-11 15:09:00,
2013-08-11 08:14:00,55.8,55.8,30.00,NNE,22,3.4,5.8,100,0.00,,,0.00,0.00,VWS V14.01,2013-08-11 15:14:00,
2013-08-11 08:15:00,55.8,55.8,30.00,ENE,68,2.0,5.8,100,0.00,,,0.00,0.00,VWS V14.01,2013-08-11 15:15:00,
2013-08-11 08:20:00,55.9,55.9,30.00,NE,45,2.7,3.8,100,0.00,,,0.00,0.00,VWS V14.01,2013-08-11 15:20:00,
2013-08-11 08:26:00,55.9,55.9,30.00,East,90,3.4,4.0,100,0.00,,,0.00,0.00,VWS V14.01,2013-08-11 15:26:00,
2013-08-11 08:30:00,55.9,55.9,30.00,East,90,0.0,4.0,100,0.00,,,0.00,0.00,VWS V14.01,2013-08-11 15:30:00,
2013-08-11 08:31:00,55.8,55.8,30.00,NE,45,6.0,6.0,100,0.00,,,0.00,0.00,VWS V14.01,2013-08-11 15:31:00,
2013-08-11 08:36:00,56.1,56.1,30.00,NE,45,2.5,6.3,100,0.00,,,0.00,0.00,VWS V14.01,2013-08-11 15:36:00,
2013-08-11 08:42:00,56.3,56.3,30.00,East,90,4.0,6.3,100,0.00,,,0.00,0.00,VWS V14.01,2013-08-11 15:42:00,
2013-08-11 08:45:00,55.8,55.8,30.00,NNW,338,2.0,6.3,100,0.00,,,0.00,0.00,VWS V14.01,2013-08-11 15:45:00,
2013-08-11 08:48:00,55.9,55.9,30.00,ESE,112,3.8,4.3,100,0.00,,,0.00,0.00,VWS V14.01,2013-08-11 15:48:00,
2013-08-11 08:53:00,56.1,56.1,30.00,SE,135,2.5,4.3,100,0.00,,,0.00,0.00,VWS V14.01,2013-08-11 15:53:00,
2013-08-11 08:58:00,56.3,56.3,30.00,North,0,3.6,4.3,100,0.00,,,0.00,0.00,VWS V14.01,2013-08-11 15:58:00,
2013-08-11 09:00:00,56.3,56.3,30.00,NE,45,2.5,4.3,100,0.00,,,0.00,0.00,VWS V14.01,2013-08-11 16:00:00,
2013-08-11 09:03:00,56.1,56.1,30.00,NE,45,2.5,4.3,100,0.00,,,0.00,0.00,VWS V14.01,2013-08-11 16:03:00,
2013-08-11 09:09:00,56.5,56.5,30.00,East,90,2.5,4.3,100,0.00,,,0.00,0.00,VWS V14.01,2013-08-11 16:09:00,
2013-08-11 09:14:00,56.3,56.3,30.00,North,0,0.0,5.4,100,0.00,,,0.00,0.00,VWS V14.01,2013-08-11 16:14:00,
2013-08-11 09:15:00,56.3,56.3,30.00,South,180,0.0,5.4,100,0.00,,,0.00,0.00,VWS V14.01,2013-08-11 16:15:00,
2013-08-11 09:19:00,56.5,56.5,30.00,East,90,2.5,5.8,100,0.00,,,0.00,0.00,VWS V14.01,2013-08-11 16:19:00,
2013-08-11 09:24:00,56.7,56.7,30.00,East,90,3.4,5.8,100,0.00,,,0.00,0.00,VWS V14.01,2013-08-11 16:24:00,
2013-08-11 09:30:00,56.7,56.7,30.00,SSE,158,0.9,5.8,100,0.00,,,0.00,0.00,VWS V14.01,2013-08-11 16:30:00,
2013-08-11 09:31:00,56.8,56.8,30.00,ESE,112,0.0,2.5,100,0.00,,,0.00,0.00,VWS V14.01,2013-08-11 16:31:00,
2013-08-11 09:37:00,56.7,56.7,30.00,North,0,1.6,6.5,100,0.00,,,0.00,0.00,VWS V14.01,2013-08-11 16:37:00,
2013-08-11 09:42:00,56.7,56.7,30.00,North,0,3.6,6.5,100,0.00,,,0.00,0.00,VWS V14.01,2013-08-11 16:42:00,
2013-08-11 09:45:00,56.8,56.8,30.03,North,0,2.5,6.5,100,0.00,,,0.00,0.00,VWS V14.01,2013-08-11 16:45:00,
2013-08-11 09:47:00,57.0,57.0,30.03,East,90,1.1,4.7,100,0.00,,,0.00,0.00,VWS V14.01,2013-08-11 16:47:00,
2013-08-11 09:53:00,57.2,57.2,30.03,East,90,2.5,6.5,100,0.00,,,0.00,0.00,VWS V14.01,2013-08-11 16:53:00,
2013-08-11 09:58:00,57.4,57.4,30.00,North,0,2.7,6.5,100,0.00,,,0.00,0.00,VWS V14.01,2013-08-11 16:58:00,
2013-08-11 10:00:00,57.2,57.2,30.00,North,0,7.2,7.2,100,0.00,,,0.00,0.00,VWS V14.01,2013-08-11 17:00:00,
2013-08-11 10:04:00,57.2,57.2,30.00,NNW,338,3.4,7.2,100,0.00,,,0.00,0.00,VWS V14.01,2013-08-11 17:04:00,
2013-08-11 10:09:00,57.2,57.2,30.00,East,90,2.7,7.6,100,0.00,,,0.00,0.00,VWS V14.01,2013-08-11 17:09:00,
2013-08-11 10:14:00,57.9,57.9,30.00,ENE,68,2.9,7.6,100,0.00,,,0.00,0.00,VWS V14.01,2013-08-11 17:14:00,
2013-08-11 10:15:00,57.7,57.7,30.00,North,0,8.7,8.7,100,0.00,,,0.00,0.00,VWS V14.01,2013-08-11 17:15:00,
2013-08-11 10:19:00,57.4,57.4,30.00,SSE,158,3.4,8.7,100,0.00,,,0.00,0.00,VWS V14.01,2013-08-11 17:19:00,
2013-08-11 10:24:00,58.1,58.1,30.00,NE,45,3.1,8.7,100,0.00,,,0.00,0.00,VWS V14.01,2013-08-11 17:24:00,
2013-08-11 10:30:00,58.1,58.1,30.03,NE,45,2.7,8.7,100,0.00,,,0.00,0.00,VWS V14.01,2013-08-11 17:30:00,
2013-08-11 10:36:00,58.5,58.5,30.03,North,0,2.5,3.6,100,0.00,,,0.00,0.00,VWS V14.01,2013-08-11 17:36:00,
2013-08-11 10:41:00,59.2,59.2,30.03,North,0,2.9,3.8,100,0.00,,,0.00,0.00,VWS V14.01,2013-08-11 17:41:00,
2013-08-11 10:45:00,58.6,58.4,30.03,East,90,3.6,4.7,99,0.00,,,0.00,0.00,VWS V14.01,2013-08-11 17:45:00,
2013-08-11 10:46:00,59.0,58.7,30.03,NNW,338,2.9,3.6,99,0.00,,,0.00,0.00,VWS V14.01,2013-08-11 17:46:00,
2013-08-11 10:51:00,58.8,58.5,30.03,NE,45,1.3,4.9,99,0.00,,,0.00,0.00,VWS V14.01,2013-08-11 17:51:00,
2013-08-11 10:56:00,59.7,59.2,30.03,East,90,2.9,4.9,98,0.00,,,0.00,0.00,VWS V14.01,2013-08-11 17:56:00,
2013-08-11 11:00:00,59.5,59.0,30.03,East,90,2.7,5.4,98,0.00,,,0.00,0.00,VWS V14.01,2013-08-11 18:00:00,
2013-08-11 11:01:00,59.7,59.2,30.03,SSE,158,3.1,5.8,98,0.00,,,0.00,0.00,VWS V14.01,2013-08-11 18:01:00,
2013-08-11 11:07:00,59.7,59.2,30.03,SSE,158,3.4,6.0,98,0.00,,,0.00,0.00,VWS V14.01,2013-08-11 18:07:00,
2013-08-11 11:12:00,59.7,58.9,30.03,SW,225,8.5,8.7,97,0.00,,,0.00,0.00,VWS V14.01,2013-08-11 18:12:00,
2013-08-11 11:15:00,59.7,58.9,30.03,SE,135,1.3,12.3,97,0.00,,,0.00,0.00,VWS V14.01,2013-08-11 18:15:00,
2013-08-11 11:17:00,60.1,59.2,30.03,WNW,292,5.6,6.3,97,0.00,,,0.00,0.00,VWS V14.01,2013-08-11 18:17:00,
2013-08-11 11:22:00,59.5,58.4,30.03,SSW,202,5.6,15.2,96,0.00,,,0.00,0.00,VWS V14.01,2013-08-11 18:22:00,
2013-08-11 11:30:00,59.5,58.7,30.00,South,180,7.2,15.2,97,0.00,,,0.00,0.00,VWS V14.01,2013-08-11 18:30:00,
2013-08-11 11:35:00,59.5,58.7,30.00,South,180,2.9,13.0,97,0.00,,,0.00,0.00,VWS V14.01,2013-08-11 18:35:00,
2013-08-11 11:41:00,59.9,59.0,30.00,SE,135,5.8,13.0,97,0.00,,,0.00,0.00,VWS V14.01,2013-08-11 18:41:00,
2013-08-11 11:45:00,59.9,59.0,30.00,SSW,202,10.1,13.9,97,0.00,,,0.00,0.00,VWS V14.01,2013-08-11 18:45:00,
2013-08-11 11:47:00,59.9,59.0,30.00,SE,135,3.8,10.1,97,0.00,,,0.00,0.00,VWS V14.01,2013-08-11 18:47:00,
2013-08-11 11:52:00,59.9,59.0,30.00,SSW,202,8.5,13.0,97,0.00,,,0.00,0.00,VWS V14.01,2013-08-11 18:52:00,
2013-08-11 11:57:00,59.9,58.8,30.00,SSW,202,13.0,14.5,96,0.00,,,0.00,0.00,VWS V14.01,2013-08-11 18:57:00,
2013-08-11 12:00:00,59.9,59.0,30.03,SSE,158,4.0,14.5,97,0.00,,,0.00,0.00,VWS V14.01,2013-08-11 19:00:00,
2013-08-11 12:03:00,60.1,58.9,30.03,NE,45,9.4,12.8,96,0.00,,,0.00,0.00,VWS V14.01,2013-08-11 19:03:00,
2013-08-11 12:09:00,60.1,58.9,30.03,South,180,8.7,15.2,96,0.00,,,0.00,0.00,VWS V14.01,2013-08-11 19:09:00,
2013-08-11 12:14:00,60.6,59.5,30.00,SSW,202,16.8,16.8,96,0.00,,,0.00,0.00,VWS V14.01,2013-08-11 19:14:00,
2013-08-11 12:15:00,60.3,58.8,30.00,South,180,10.5,16.8,95,0.00,,,0.00,0.00,VWS V14.01,2013-08-11 19:15:00,
2013-08-11 12:19:00,60.4,59.3,30.00,SE,135,5.8,10.5,96,0.00,,,0.00,0.00,VWS V14.01,2013-08-11 19:19:00,
2013-08-11 12:25:00,61.0,59.5,30.00,ESE,112,2.9,12.5,95,0.00,,,0.00,0.00,VWS V14.01,2013-08-11 19:25:00,
2013-08-11 12:30:00,61.3,59.6,30.00,SE,135,7.6,13.4,94,0.00,,,0.00,0.00,VWS V14.01,2013-08-11 19:30:00,
2013-08-11 12:35:00,61.5,59.8,30.00,SSW,202,3.8,12.5,94,0.00,,,0.00,0.00,VWS V14.01,2013-08-11 19:35:00,
2013-08-11 12:41:00,61.2,59.1,30.00,South,180,9.4,12.8,93,0.00,,,0.00,0.00,VWS V14.01,2013-08-11 19:41:00,
2013-08-11 12:45:00,61.0,59.0,30.00,West,270,5.6,13.4,93,0.00,,,0.00,0.00,VWS V14.01,2013-08-11 19:45:00,
2013-08-11 12:49:00,61.3,59.6,30.00,SE,135,8.5,10.7,94,0.00,,,0.00,0.00,VWS V14.01,2013-08-11 19:49:00,
2013-08-11 12:55:00,61.5,59.8,30.00,WSW,248,8.1,13.9,94,0.00,,,0.00,0.00,VWS V14.01,2013-08-11 19:55:00,
2013-08-11 13:00:00,61.3,59.3,30.00,South,180,3.4,14.1,93,0.00,,,0.00,0.00,VWS V14.01,2013-08-11 20:00:00,
2013-08-11 13:07:00,61.3,59.6,30.00,SW,225,6.0,15.2,94,0.00,,,0.00,0.00,VWS V14.01,2013-08-11 20:07:00,
2013-08-11 13:13:00,61.7,59.7,30.00,SSW,202,11.9,15.2,93,0.00,,,0.00,0.00,VWS V14.01,2013-08-11 20:13:00,
2013-08-11 13:15:00,61.7,59.7,30.03,SSE,158,2.5,15.2,93,0.00,,,0.00,0.00,VWS V14.01,2013-08-11 20:15:00,
2013-08-11 13:18:00,61.7,59.4,30.03,SSW,202,3.4,10.7,92,0.00,,,0.00,0.00,VWS V14.01,2013-08-11 20:18:00,
2013-08-11 13:23:00,61.5,59.5,30.03,South,180,10.3,14.5,93,0.00,,,0.00,0.00,VWS V14.01,2013-08-11 20:23:00,
2013-08-11 13:29:00,61.5,59.5,30.03,SSE,158,15.2,15.2,93,0.00,,,0.00,0.00,VWS V14.01,2013-08-11 20:29:00,
2013-08-11 13:30:00,61.7,59.7,30.03,ESE,112,8.5,15.2,93,0.00,,,0.00,0.00,VWS V14.01,2013-08-11 20:30:00,
2013-08-11 13:34:00,61.3,59.3,30.03,SSW,202,10.1,15.4,93,0.00,,,0.00,0.00,VWS V14.01,2013-08-11 20:34:00,
2013-08-11 13:39:00,61.3,59.6,30.03,SSW,202,5.8,19.9,94,0.00,,,0.00,0.00,VWS V14.01,2013-08-11 20:39:00,
2013-08-11 13:44:00,61.3,59.6,30.00,SSW,202,11.9,19.9,94,0.00,,,0.00,0.00,VWS V14.01,2013-08-11 20:44:00,
2013-08-11 13:45:00,61.3,59.6,30.00,SSE,158,9.4,19.9,94,0.00,,,0.00,0.00,VWS V14.01,2013-08-11 20:45:00,
2013-08-11 13:50:00,61.3,59.6,30.00,SSE,158,13.0,14.5,94,0.00,,,0.00,0.00,VWS V14.01,2013-08-11 20:50:00,
2013-08-11 13:55:00,61.7,60.0,30.00,SSE,158,4.3,14.5,94,0.00,,,0.00,0.00,VWS V14.01,2013-08-11 20:55:00,
2013-08-11 14:00:00,61.7,59.7,30.00,SE,135,11.4,17.5,93,0.00,,,0.00,0.00,VWS V14.01,2013-08-11 21:00:00,
2013-08-11 14:05:00,61.5,59.5,30.00,SSW,202,15.9,17.5,93,0.00,,,0.00,0.00,VWS V14.01,2013-08-11 21:05:00,
2013-08-11 14:11:00,61.3,59.6,30.00,SE,135,8.1,17.5,94,0.00,,,0.00,0.00,VWS V14.01,2013-08-11 21:11:00,
2013-08-11 14:15:00,61.5,59.8,30.00,South,180,8.5,17.5,94,0.00,,,0.00,0.00,VWS V14.01,2013-08-11 21:15:00,
2013-08-11 14:17:00,61.9,60.1,30.00,South,180,6.5,10.5,94,0.00,,,0.00,0.00,VWS V14.01,2013-08-11 21:17:00,
2013-08-11 14:22:00,61.9,59.8,30.00,WSW,248,7.6,16.1,93,0.00,,,0.00,0.00,VWS V14.01,2013-08-11 21:22:00,
2013-08-11 14:27:00,61.9,60.1,30.00,SSE,158,9.4,17.2,94,0.00,,,0.00,0.00,VWS V14.01,2013-08-11 21:27:00,
2013-08-11 14:30:00,61.9,59.8,30.00,SW,225,7.8,17.2,93,0.00,,,0.00,0.00,VWS V14.01,2013-08-11 21:30:00,
2013-08-11 14:32:00,61.9,59.8,30.00,SW,225,13.2,13.2,93,0.00,,,0.00,0.00,VWS V14.01,2013-08-11 21:32:00,
2013-08-11 14:37:00,61.7,59.7,30.00,WSW,248,4.7,17.2,93,0.00,,,0.00,0.00,VWS V14.01,2013-08-11 21:37:00,
2013-08-11 14:45:00,61.9,59.8,30.00,ESE,112,6.5,19.0,93,0.00,,,0.00,0.00,VWS V14.01,2013-08-11 21:45:00,
2013-08-11 14:52:00,61.5,59.8,30.00,SW,225,12.3,17.5,94,0.00,,,0.00,0.00,VWS V14.01,2013-08-11 21:52:00,
2013-08-11 14:57:00,61.7,59.7,30.00,SW,225,11.2,17.5,93,0.00,,,0.00,0.00,VWS V14.01,2013-08-11 21:57:00,
2013-08-11 15:00:00,61.2,59.4,30.00,SSE,158,7.6,26.6,94,0.00,,,0.00,0.00,VWS V14.01,2013-08-11 22:00:00,
2013-08-11 15:02:00,61.3,59.6,30.00,North,0,10.5,14.3,94,0.00,,,0.00,0.00,VWS V14.01,2013-08-11 22:02:00,
2013-08-11 15:07:00,61.5,59.8,30.00,SSW,202,12.8,19.2,94,0.00,,,0.00,0.00,VWS V14.01,2013-08-11 22:07:00,
2013-08-11 15:12:00,61.5,59.8,30.00,SSW,202,8.7,19.2,94,0.00,,,0.00,0.00,VWS V14.01,2013-08-11 22:12:00,
2013-08-11 15:15:00,61.7,60.0,29.97,South,180,14.3,21.0,94,0.00,,,0.00,0.00,VWS V14.01,2013-08-11 22:15:00,
2013-08-11 15:17:00,61.7,60.0,29.97,South,180,5.8,17.2,94,0.00,,,0.00,0.00,VWS V14.01,2013-08-11 22:17:00,
2013-08-11 15:22:00,61.5,59.8,29.97,SW,225,10.5,17.9,94,0.00,,,0.00,0.00,VWS V14.01,2013-08-11 22:22:00,
2013-08-11 15:28:00,61.5,59.8,29.97,South,180,24.4,24.4,94,0.00,,,0.00,0.00,VWS V14.01,2013-08-11 22:28:00,
2013-08-11 15:30:00,61.3,59.6,29.97,South,180,10.1,24.4,94,0.00,,,0.00,0.00,VWS V14.01,2013-08-11 22:30:00,
2013-08-11 15:33:00,61.5,59.8,29.97,SSW,202,17.5,17.5,94,0.00,,,0.00,0.00,VWS V14.01,2013-08-11 22:33:00,
2013-08-11 15:38:00,61.5,59.8,29.97,SSW,202,14.8,17.7,94,0.00,,,0.00,0.00,VWS V14.01,2013-08-11 22:38:00,
2013-08-11 15:45:00,61.7,60.0,29.97,SSW,202,8.7,25.7,94,0.00,,,0.00,0.00,VWS V14.01,2013-08-11 22:45:00,
2013-08-11 15:50:00,61.7,59.7,29.97,SSW,202,13.0,26.0,93,0.00,,,0.00,0.00,VWS V14.01,2013-08-11 22:50:00,
2013-08-11 15:55:00,61.7,60.0,29.97,SE,135,8.7,26.0,94,0.00,,,0.00,0.00,VWS V14.01,2013-08-11 22:55:00,
2013-08-11 16:00:00,61.5,59.8,29.97,South,180,7.6,10.7,94,0.00,,,0.00,0.00,VWS V14.01,2013-08-11 23:00:00,
2013-08-11 16:06:00,61.3,59.6,29.97,South,180,11.0,19.9,94,0.00,,,0.00,0.00,VWS V14.01,2013-08-11 23:06:00,
2013-08-11 16:11:00,61.3,59.6,29.97,SSE,158,6.7,24.2,94,0.00,,,0.00,0.00,VWS V14.01,2013-08-11 23:11:00,
2013-08-11 16:15:00,61.2,59.4,29.97,SSW,202,17.7,24.2,94,0.00,,,0.00,0.00,VWS V14.01,2013-08-11 23:15:00,
2013-08-11 16:16:00,61.0,59.2,29.97,SSE,158,16.6,17.7,94,0.00,,,0.00,0.00,VWS V14.01,2013-08-11 23:16:00,
2013-08-11 16:22:00,61.0,59.5,29.97,SSE,158,9.6,20.4,95,0.00,,,0.00,0.00,VWS V14.01,2013-08-11 23:22:00,
2013-08-11 16:27:00,61.0,59.5,29.97,South,180,15.2,20.4,95,0.00,,,0.00,0.00,VWS V14.01,2013-08-11 23:27:00,
2013-08-11 16:30:00,60.6,59.2,29.97,SSW,202,10.5,23.3,95,0.00,,,0.00,0.00,VWS V14.01,2013-08-11 23:30:00,
2013-08-11 16:32:00,60.6,59.5,29.97,South,180,23.3,23.3,96,0.00,,,0.00,0.00,VWS V14.01,2013-08-11 23:32:00,
2013-08-11 16:37:00,60.4,59.3,29.97,SSW,202,9.8,23.7,96,0.00,,,0.00,0.00,VWS V14.01,2013-08-11 23:37:00,
2013-08-11 16:42:00,60.4,59.3,29.97,South,180,10.3,23.7,96,0.00,,,0.00,0.00,VWS V14.01,2013-08-11 23:42:00,
2013-08-11 16:45:00,60.3,59.4,29.97,SSE,158,12.5,23.7,97,0.00,,,0.00,0.00,VWS V14.01,2013-08-11 23:45:00,
2013-08-11 16:47:00,60.3,59.4,29.97,SSE,158,11.0,17.5,97,0.00,,,0.00,0.00,VWS V14.01,2013-08-11 23:47:00,
2013-08-11 16:52:00,60.1,59.2,29.97,SSE,158,12.1,19.5,97,0.00,,,0.00,0.00,VWS V14.01,2013-08-11 23:52:00,
2013-08-11 16:59:00,59.9,59.3,29.94,South,180,13.0,23.9,98,0.00,,,0.00,0.00,VWS V14.01,2013-08-11 23:59:00,
2013-08-11 17:00:00,59.9,59.3,29.94,SSW,202,16.8,23.9,98,0.00,,,0.00,0.00,VWS V14.01,2013-08-12 00:00:00,
2013-08-11 17:06:00,59.7,59.2,29.94,SW,225,14.5,19.0,98,0.00,,,0.00,0.00,VWS V14.01,2013-08-12 00:06:00,
2013-08-11 17:12:00,59.9,59.3,29.94,SE,135,8.7,22.6,98,0.00,,,0.00,0.00,VWS V14.01,2013-08-12 00:12:00,
2013-08-11 17:15:00,59.7,59.2,29.97,South,180,22.2,22.6,98,0.00,,,0.00,0.00,VWS V14.01,2013-08-12 00:15:00,
2013-08-11 17:17:00,59.7,59.4,29.97,South,180,10.5,23.5,99,0.00,,,0.00,0.00,VWS V14.01,2013-08-12 00:17:00,
2013-08-11 17:23:00,59.7,59.4,29.97,South,180,13.2,23.5,99,0.00,,,0.00,0.00,VWS V14.01,2013-08-12 00:23:00,
2013-08-11 17:30:00,59.5,59.3,29.94,SW,225,6.0,23.5,99,0.00,,,0.00,0.00,VWS V14.01,2013-08-12 00:30:00,
2013-08-11 17:35:00,59.4,59.1,29.94,South,180,12.8,19.7,99,0.00,,,0.00,0.00,VWS V14.01,2013-08-12 00:35:00,
2013-08-11 17:40:00,59.2,58.9,29.94,SSW,202,14.3,19.9,99,0.00,,,0.00,0.00,VWS V14.01,2013-08-12 00:40:00,
2013-08-11 17:45:00,59.2,59.2,29.94,South,180,17.5,23.0,100,0.00,,,0.00,0.00,VWS V14.01,2013-08-12 00:45:00,
2013-08-11 17:47:00,59.0,59.0,29.94,WNW,292,7.6,17.5,100,0.00,,,0.00,0.00,VWS V14.01,2013-08-12 00:47:00,
2013-08-11 17:52:00,59.0,59.0,29.94,SW,225,7.8,25.3,100,0.00,,,0.00,0.00,VWS V14.01,2013-08-12 00:52:00,
2013-08-11 17:58:00,58.8,58.8,29.94,SW,225,13.0,25.3,100,0.00,,,0.00,0.00,VWS V14.01,2013-08-12 00:58:00,
2013-08-11 18:00:00,58.8,58.8,29.94,SSE,158,4.0,25.3,100,0.00,,,0.00,0.00,VWS V14.01,2013-08-12 01:00:00,
2013-08-11 18:03:00,58.6,58.6,29.94,SSE,158,5.6,19.2,100,0.00,,,0.00,0.00,VWS V14.01,2013-08-12 01:03:00,
2013-08-11 18:08:00,58.6,58.6,29.94,SSW,202,8.7,23.3,100,0.00,,,0.00,0.00,VWS V14.01,2013-08-12 01:08:00,
2013-08-11 18:13:00,58.8,58.8,29.94,South,180,11.4,23.5,100,0.00,,,0.00,0.00,VWS V14.01,2013-08-12 01:13:00,
2013-08-11 18:15:00,58.6,58.6,29.94,SSW,202,7.6,23.5,100,0.00,,,0.00,0.00,VWS V14.01,2013-08-12 01:15:00,
2013-08-11 18:19:00,58.6,58.6,29.94,SSE,158,17.2,17.7,100,0.00,,,0.00,0.00,VWS V14.01,2013-08-12 01:19:00,
2013-08-11 18:25:00,58.5,58.5,29.94,South,180,11.9,20.6,100,0.00,,,0.00,0.00,VWS V14.01,2013-08-12 01:25:00,
2013-08-11 18:30:00,58.5,58.5,29.94,SSE,158,8.7,10.1,100,0.00,,,0.00,0.00,VWS V14.01,2013-08-12 01:30:00,
2013-08-11 18:36:00,58.1,58.1,29.94,South,180,6.5,23.7,100,0.00,,,0.00,0.00,VWS V14.01,2013-08-12 01:36:00,
2013-08-11 18:41:00,57.7,57.7,29.94,South,180,10.5,24.6,100,0.00,,,0.00,0.00,VWS V14.01,2013-08-12 01:41:00,
2013-08-11 18:45:00,57.7,57.7,29.94,South,180,15.2,24.6,100,0.00,,,0.00,0.00,VWS V14.01,2013-08-12 01:45:00,
2013-08-11 18:48:00,57.6,57.6,29.94,South,180,16.1,21.5,100,0.00,,,0.00,0.00,VWS V14.01,2013-08-12 01:48:00,
2013-08-11 18:53:00,57.4,57.4,29.94,SW,225,7.6,21.5,100,0.00,,,0.00,0.00,VWS V14.01,2013-08-12 01:53:00,
2013-08-11 19:00:00,57.4,57.4,29.94,SW,225,4.3,21.5,100,0.00,,,0.00,0.00,VWS V14.01,2013-08-12 02:00:00,
2013-08-11 19:05:00,57.4,57.4,29.94,SSW,202,7.6,16.8,100,0.00,,,0.00,0.00,VWS V14.01,2013-08-12 02:05:00,
2013-08-11 19:12:00,57.4,57.4,29.94,SSW,202,10.1,20.1,100,0.00,,,0.00,0.00,VWS V14.01,2013-08-12 02:12:00,
2013-08-11 19:15:00,57.2,57.2,29.94,South,180,18.1,20.1,100,0.00,,,0.00,0.00,VWS V14.01,2013-08-12 02:15:00,
2013-08-11 19:19:00,57.2,57.2,29.94,SSE,158,11.0,18.1,100,0.00,,,0.00,0.00,VWS V14.01,2013-08-12 02:19:00,
2013-08-11 19:24:00,57.2,57.2,29.94,SSW,202,13.6,18.1,100,0.00,,,0.00,0.00,VWS V14.01,2013-08-12 02:24:00,
2013-08-11 19:30:00,57.2,57.2,29.94,SSW,202,11.0,11.0,100,0.00,,,0.00,0.00,VWS V14.01,2013-08-12 02:30:00,
2013-08-11 19:35:00,57.2,57.2,29.94,SSE,158,6.9,16.3,100,0.00,,,0.00,0.00,VWS V14.01,2013-08-12 02:35:00,
2013-08-11 19:40:00,57.2,57.2,29.94,SSW,202,7.2,18.6,100,0.00,,,0.00,0.00,VWS V14.01,2013-08-12 02:40:00,
2013-08-11 19:45:00,57.0,57.0,29.94,South,180,5.6,18.6,100,0.00,,,0.00,0.00,VWS V14.01,2013-08-12 02:45:00,
2013-08-11 19:46:00,57.0,57.0,29.94,South,180,13.6,14.3,100,0.00,,,0.00,0.00,VWS V14.01,2013-08-12 02:46:00,
2013-08-11 19:54:00,56.7,56.7,29.94,SSE,158,14.5,16.8,100,0.00,,,0.00,0.00,VWS V14.01,2013-08-12 02:54:00,
2013-08-11 20:00:00,56.7,56.7,29.94,South,180,7.4,16.8,100,0.00,,,0.00,0.00,VWS V14.01,2013-08-12 03:00:00,
2013-08-11 20:05:00,56.7,56.7,29.94,SSW,202,8.7,14.8,100,0.00,,,0.00,0.00,VWS V14.01,2013-08-12 03:05:00,
2013-08-11 20:10:00,56.5,56.5,29.94,South,180,13.0,19.9,100,0.00,,,0.00,0.00,VWS V14.01,2013-08-12 03:10:00,
2013-08-11 20:15:00,56.3,56.3,29.94,SSW,202,8.5,13.0,100,0.00,,,0.00,0.00,VWS V14.01,2013-08-12 03:15:00,
2013-08-11 20:22:00,56.3,56.3,29.94,SSW,202,5.4,14.8,100,0.00,,,0.00,0.00,VWS V14.01,2013-08-12 03:22:00,
2013-08-11 20:27:00,56.1,56.1,29.94,SSE,158,4.9,14.8,100,0.00,,,0.00,0.00,VWS V14.01,2013-08-12 03:27:00,
2013-08-11 20:30:00,56.1,56.1,29.94,SE,135,6.5,16.6,100,0.00,,,0.00,0.00,VWS V14.01,2013-08-12 03:30:00,
2013-08-11 20:32:00,56.1,56.1,29.94,SSE,158,15.2,15.2,100,0.00,,,0.00,0.00,VWS V14.01,2013-08-12 03:32:00,
2013-08-11 20:37:00,56.1,56.1,29.94,SSW,202,10.7,15.2,100,0.00,,,0.00,0.00,VWS V14.01,2013-08-12 03:37:00,
2013-08-11 20:42:00,55.9,55.9,29.94,SSE,158,7.8,15.2,100,0.00,,,0.00,0.00,VWS V14.01,2013-08-12 03:42:00,
2013-08-11 20:45:00,55.9,55.9,29.94,South,180,15.2,15.2,100,0.00,,,0.00,0.00,VWS V14.01,2013-08-12 03:45:00,
2013-08-11 20:49:00,55.9,55.9,29.94,SSW,202,12.8,15.4,100,0.00,,,0.00,0.00,VWS V14.01,2013-08-12 03:49:00,
2013-08-11 20:56:00,55.8,55.8,29.94,SSW,202,7.2,15.9,100,0.00,,,0.00,0.00,VWS V14.01,2013-08-12 03:56:00,
2013-08-11 21:00:00,55.8,55.8,29.94,WSW,248,6.5,15.9,100,0.00,,,0.00,0.00,VWS V14.01,2013-08-12 04:00:00,
2013-08-11 21:01:00,55.8,55.8,29.94,SSW,202,8.5,12.8,100,0.00,,,0.00,0.00,VWS V14.01,2013-08-12 04:01:00,
2013-08-11 21:03:00,55.8,55.8,29.94,South,180,11.0,13.0,100,0.00,,,0.00,0.00,VWS V14.01,2013-08-12 04:03:00,
2013-08-11 21:05:00,55.6,55.6,29.94,SSW,202,10.3,17.2,100,0.00,,,0.00,0.00,VWS V14.01,2013-08-12 04:05:00,
2013-08-11 21:06:00,55.6,55.6,29.94,SSW,202,4.3,17.2,100,0.00,,,0.00,0.00,VWS V14.01,2013-08-12 04:06:00,
2013-08-11 21:07:00,55.6,55.6,29.94,SSW,202,7.8,17.2,100,0.00,,,0.00,0.00,VWS V14.01,2013-08-12 04:07:00,
2013-08-11 21:12:00,55.6,55.6,29.94,South,180,8.5,17.2,100,0.00,,,0.00,0.00,VWS V14.01,2013-08-12 04:12:00,
2013-08-11 21:15:00,55.4,55.4,29.94,South,180,8.1,17.2,100,0.00,,,0.00,0.00,VWS V14.01,2013-08-12 04:15:00,
2013-08-11 21:17:00,55.4,55.4,29.94,WSW,248,12.8,12.8,100,0.00,,,0.00,0.00,VWS V14.01,2013-08-12 04:17:00,
2013-08-11 21:22:00,55.4,55.4,29.94,SSW,202,4.3,15.9,100,0.00,,,0.00,0.00,VWS V14.01,2013-08-12 04:22:00,
2013-08-11 21:27:00,55.2,55.2,29.94,SSW,202,5.6,17.5,100,0.00,,,0.00,0.00,VWS V14.01,2013-08-12 04:27:00,
2013-08-11 21:30:00,55.2,55.2,29.94,SSW,202,8.5,17.5,100,0.00,,,0.00,0.00,VWS V14.01,2013-08-12 04:30:00,
2013-08-11 21:32:00,55.2,55.2,29.94,SSW,202,5.8,9.6,100,0.00,,,0.00,0.00,VWS V14.01,2013-08-12 04:32:00,
2013-08-11 21:37:00,55.2,55.2,29.94,SSE,158,3.6,9.6,100,0.00,,,0.00,0.00,VWS V14.01,2013-08-12 04:37:00,
2013-08-11 21:42:00,55.0,55.0,29.94,South,180,7.4,10.3,100,0.00,,,0.00,0.00,VWS V14.01,2013-08-12 04:42:00,
2013-08-11 21:45:00,55.2,55.2,29.94,North,0,3.6,10.3,100,0.00,,,0.00,0.00,VWS V14.01,2013-08-12 04:45:00,
2013-08-11 21:47:00,55.0,55.0,29.94,SSW,202,13.4,13.4,100,0.00,,,0.00,0.00,VWS V14.01,2013-08-12 04:47:00,
2013-08-11 21:52:00,54.9,54.9,29.94,SSE,158,7.8,13.4,100,0.00,,,0.00,0.00,VWS V14.01,2013-08-12 04:52:00,
2013-08-11 21:57:00,55.0,55.0,29.94,South,180,3.8,13.4,100,0.00,,,0.00,0.00,VWS V14.01,2013-08-12 04:57:00,
2013-08-11 22:00:00,55.0,55.0,29.97,SW,225,8.5,13.4,100,0.00,,,0.00,0.00,VWS V14.01,2013-08-12 05:00:00,
2013-08-11 22:02:00,55.0,55.0,29.97,SSW,202,4.9,8.5,100,0.00,,,0.00,0.00,VWS V14.01,2013-08-12 05:02:00,
2013-08-11 22:08:00,55.0,55.0,29.97,WSW,248,12.1,12.8,100,0.00,,,0.00,0.00,VWS V14.01,2013-08-12 05:08:00,
2013-08-11 22:13:00,55.0,55.0,29.97,SE,135,5.6,12.8,100,0.00,,,0.00,0.00,VWS V14.01,2013-08-12 05:13:00,
2013-08-11 22:15:00,54.9,54.9,29.94,SSW,202,10.7,12.8,100,0.00,,,0.00,0.00,VWS V14.01,2013-08-12 05:15:00,
2013-08-11 22:18:00,54.9,54.9,29.94,WSW,248,6.3,12.1,100,0.00,,,0.00,0.00,VWS V14.01,2013-08-12 05:18:00,
2013-08-11 22:23:00,54.9,54.9,29.94,SW,225,10.7,12.1,100,0.00,,,0.00,0.00,VWS V14.01,2013-08-12 05:23:00,
2013-08-11 22:28:00,54.9,54.9,29.94,SSW,202,6.0,12.1,100,0.00,,,0.00,0.00,VWS V14.01,2013-08-12 05:28:00,
2013-08-11 22:30:00,54.9,54.9,29.94,ENE,68,8.5,12.1,100,0.00,,,0.00,0.00,VWS V14.01,2013-08-12 05:30:00,
2013-08-11 22:33:00,54.9,54.9,29.94,WSW,248,3.6,8.5,100,0.00,,,0.00,0.00,VWS V14.01,2013-08-12 05:33:00,
2013-08-11 22:38:00,54.9,54.9,29.94,SSE,158,6.0,10.3,100,0.00,,,0.00,0.00,VWS V14.01,2013-08-12 05:38:00,
2013-08-11 22:43:00,54.9,54.9,29.94,SSW,202,6.0,10.3,100,0.00,,,0.00,0.00,VWS V14.01,2013-08-12 05:43:00,
2013-08-11 22:45:00,54.7,54.7,29.97,SE,135,3.8,10.3,100,0.00,,,0.00,0.00,VWS V14.01,2013-08-12 05:45:00,
2013-08-11 22:48:00,54.7,54.7,29.97,NE,45,2.0,10.7,100,0.00,,,0.00,0.00,VWS V14.01,2013-08-12 05:48:00,
2013-08-11 22:53:00,54.7,54.7,29.97,South,180,5.4,10.7,100,0.00,,,0.00,0.00,VWS V14.01,2013-08-12 05:53:00,
2013-08-11 22:58:00,54.7,54.7,29.97,SSW,202,12.3,12.3,100,0.00,,,0.00,0.00,VWS V14.01,2013-08-12 05:58:00,
2013-08-11 23:00:00,54.7,54.7,29.94,South,180,5.4,12.3,100,0.00,,,0.00,0.00,VWS V14.01,2013-08-12 06:00:00,
2013-08-11 23:03:00,54.7,54.7,29.94,SW,225,3.1,7.8,100,0.00,,,0.00,0.00,VWS V14.01,2013-08-12 06:03:00,
2013-08-11 23:08:00,54.7,54.7,29.94,SE,135,4.3,9.8,100,0.00,,,0.00,0.00,VWS V14.01,2013-08-12 06:08:00,
2013-08-11 23:13:00,54.7,54.7,29.94,SSW,202,3.1,9.8,100,0.00,,,0.00,0.00,VWS V14.01,2013-08-12 06:13:00,
2013-08-11 23:15:00,54.7,54.7,29.94,WNW,292,9.6,9.8,100,0.00,,,0.00,0.00,VWS V14.01,2013-08-12 06:15:00,
2013-08-11 23:18:00,54.7,54.7,29.94,ESE,112,4.0,9.6,100,0.00,,,0.00,0.00,VWS V14.01,2013-08-12 06:18:00,
2013-08-11 23:23:00,54.7,54.7,29.94,South,180,5.6,9.6,100,0.00,,,0.00,0.00,VWS V14.01,2013-08-12 06:23:00,
2013-08-11 23:28:00,54.7,54.7,29.94,SE,135,2.7,9.6,100,0.00,,,0.00,0.00,VWS V14.01,2013-08-12 06:28:00,
2013-08-11 23:30:00,54.9,54.9,29.94,SSW,202,3.6,9.6,100,0.00,,,0.00,0.00,VWS V14.01,2013-08-12 06:30:00,
2013-08-11 23:33:00,54.9,54.9,29.94,SSE,158,8.1,9.4,100,0.00,,,0.00,0.00,VWS V14.01,2013-08-12 06:33:00,
2013-08-11 23:38:00,54.9,54.9,29.94,NNW,338,3.6,12.1,100,0.00,,,0.00,0.00,VWS V14.01,2013-08-12 06:38:00,
2013-08-11 23:43:00,54.9,54.9,29.94,SSE,158,2.9,12.1,100,0.00,,,0.00,0.00,VWS V14.01,2013-08-12 06:43:00,
2013-08-11 23:45:00,54.9,54.9,29.94,North,0,4.0,12.1,100,0.00,,,0.00,0.00,VWS V14.01,2013-08-12 06:45:00,
2013-08-11 23:48:00,54.9,54.9,29.94,SW,225,5.6,7.2,100,0.00,,,0.00,0.00,VWS V14.01,2013-08-12 06:48:00,
2013-08-11 23:53:00,54.9,54.9,29.94,SW,225,5.4,7.2,100,0.00,,,0.00,0.00,VWS V14.01,2013-08-12 06:53:00,
2013-08-11 23:58:00,54.9,54.9,29.97,SE,135,4.3,9.2,100,0.00,,,0.00,0.00,VWS V14.01,2013-08-12 06:58:00,